RSC20JX GCLP-GCFV

Flight info

Callsign RSC20JX
Flight time 0h 27m
Altitude 9000
Route KOPUD
Aircraft AT76/M-SDFGIRY/S

Departure

Time 2026-05-01 10:13
Airport Gran Canaria Airport (GCLP)

Arrival

Time 2026-05-01 10:40
Airport Fuerteventura Airport (GCFV)
Time Latitude Longitude Altitude Speed Heading
2026-05-01 10:03 27.93734 -15.38881 83 ft 0 kts 291°
2026-05-01 10:07 27.93733 -15.38880 81 ft 1 kts 291°
2026-05-01 10:07 27.93724 -15.38854 81 ft 6 kts 291°
2026-05-01 10:07 27.93705 -15.38799 82 ft 7 kts 282°
2026-05-01 10:08 27.93564 -15.38848 84 ft 0 kts 202°
2026-05-01 10:08 27.93500 -15.38873 82 ft 27 kts 196°
2026-05-01 10:08 27.93286 -15.38966 78 ft 27 kts 202°
2026-05-01 10:09 27.93164 -15.39020 75 ft 17 kts 201°
2026-05-01 10:09 27.93012 -15.39086 82 ft 31 kts 201°
2026-05-01 10:09 27.92879 -15.39118 82 ft 8 kts 133°
2026-05-01 10:09 27.92818 -15.39023 81 ft 9 kts 192°
2026-05-01 10:10 27.92654 -15.39094 87 ft 37 kts 201°
2026-05-01 10:10 27.92385 -15.39212 93 ft 46 kts 201°
2026-05-01 10:10 27.92015 -15.39298 87 ft 0 kts 176°
2026-05-01 10:11 27.91906 -15.39245 83 ft 20 kts 110°
2026-05-01 10:12 27.91848 -15.39044 75 ft 19 kts 77°
2026-05-01 10:12 27.91880 -15.39006 67 ft 20 kts 22°
2026-05-01 10:12 27.93192 -15.38431 86 ft 141 kts 23°
2026-05-01 10:13 27.94168 -15.38015 372 ft 156 kts 20°
2026-05-01 10:13 27.95299 -15.37694 676 ft 176 kts 10°
2026-05-01 10:13 27.96472 -15.37334 1217 ft 174 kts 18°
2026-05-01 10:14 27.98770 -15.36361 2262 ft 178 kts 23°
2026-05-01 10:14 27.99912 -15.35806 2792 ft 179 kts 23°
2026-05-01 10:14 28.01067 -15.35253 3331 ft 180 kts 23°
2026-05-01 10:14 28.02231 -15.34720 3854 ft 181 kts 22°
2026-05-01 10:15 28.03384 -15.34151 4370 ft 180 kts 34°
2026-05-01 10:15 28.04074 -15.32987 4846 ft 182 kts 71°
2026-05-01 10:15 28.04387 -15.31613 5355 ft 183 kts 80°
2026-05-01 10:15 28.04579 -15.30190 5871 ft 184 kts 83°
2026-05-01 10:16 28.04727 -15.28746 6396 ft 185 kts 84°
2026-05-01 10:16 28.04877 -15.27291 6903 ft 187 kts 84°
2026-05-01 10:16 28.05221 -15.24356 7910 ft 190 kts 83°
2026-05-01 10:17 28.05400 -15.22868 8385 ft 192 kts 83°
2026-05-01 10:17 28.05781 -15.19709 8911 ft 221 kts 83°
2026-05-01 10:17 28.05996 -15.17933 9063 ft 234 kts 83°
2026-05-01 10:18 28.06464 -15.14094 9161 ft 256 kts 82°
2026-05-01 10:18 28.06710 -15.12066 9169 ft 263 kts 83°
2026-05-01 10:18 28.06963 -15.09996 9177 ft 269 kts 83°
2026-05-01 10:19 28.07224 -15.07852 9190 ft 279 kts 83°
2026-05-01 10:19 28.07484 -15.05700 9187 ft 277 kts 82°
2026-05-01 10:19 28.07737 -15.03589 9187 ft 265 kts 82°
2026-05-01 10:20 28.08221 -14.99599 9196 ft 248 kts 83°
2026-05-01 10:20 28.08452 -14.97683 9196 ft 242 kts 82°
2026-05-01 10:20 28.08675 -14.95806 9197 ft 238 kts 82°
2026-05-01 10:20 28.08899 -14.93961 9191 ft 234 kts 83°
2026-05-01 10:21 28.09117 -14.92144 9199 ft 232 kts 82°
2026-05-01 10:21 28.09548 -14.88545 9195 ft 234 kts 83°
2026-05-01 10:21 28.09766 -14.86702 9202 ft 237 kts 82°
2026-05-01 10:22 28.10210 -14.82982 9193 ft 241 kts 82°
2026-05-01 10:22 28.10660 -14.79203 9200 ft 243 kts 82°
2026-05-01 10:23 28.10885 -14.77303 9196 ft 244 kts 82°
2026-05-01 10:23 28.11338 -14.73481 9200 ft 245 kts 82°
2026-05-01 10:23 28.11565 -14.71567 9193 ft 245 kts 82°
2026-05-01 10:24 28.12018 -14.67725 9201 ft 246 kts 82°
2026-05-01 10:24 28.12468 -14.63911 9201 ft 246 kts 82°
2026-05-01 10:25 28.12919 -14.60061 9193 ft 246 kts 82°
2026-05-01 10:25 28.13373 -14.56207 9200 ft 246 kts 82°
2026-05-01 10:26 28.13597 -14.54304 9201 ft 247 kts 82°
2026-05-01 10:26 28.13823 -14.52377 9192 ft 247 kts 82°
2026-05-01 10:26 28.14290 -14.48526 9200 ft 247 kts 81°
2026-05-01 10:27 28.14837 -14.44682 9200 ft 247 kts 80°
2026-05-01 10:27 28.15298 -14.41495 9198 ft 247 kts 81°
2026-05-01 10:28 28.15572 -14.39571 9199 ft 247 kts 80°
2026-05-01 10:28 28.16147 -14.35728 9199 ft 247 kts 80°
2026-05-01 10:28 28.16440 -14.33808 9200 ft 247 kts 79°
2026-05-01 10:29 28.17015 -14.29953 9127 ft 250 kts 81°
2026-05-01 10:29 28.17292 -14.28032 9134 ft 249 kts 81°
2026-05-01 10:30 28.17842 -14.24185 9037 ft 243 kts 80°
2026-05-01 10:30 28.18381 -14.20428 8688 ft 241 kts 80°
2026-05-01 10:31 28.18912 -14.16694 8368 ft 239 kts 80°
2026-05-01 10:31 28.19439 -14.13004 7782 ft 235 kts 79°
2026-05-01 10:32 28.19977 -14.09269 7102 ft 236 kts 80°
2026-05-01 10:32 28.20231 -14.07481 6788 ft 224 kts 79°
2026-05-01 10:32 28.20713 -14.04123 6089 ft 211 kts 79°
2026-05-01 10:33 28.21167 -14.00883 5313 ft 204 kts 80°
2026-05-01 10:33 28.21582 -13.97755 4458 ft 198 kts 79°
2026-05-01 10:34 28.21795 -13.96223 4022 ft 195 kts 79°
2026-05-01 10:34 28.22006 -13.94722 3599 ft 191 kts 79°
2026-05-01 10:34 28.22214 -13.93248 3173 ft 188 kts 79°
2026-05-01 10:35 28.22633 -13.90378 2332 ft 184 kts 79°
2026-05-01 10:35 28.22840 -13.88989 2136 ft 170 kts 79°
2026-05-01 10:35 28.23288 -13.87872 2070 ft 153 kts 35°
2026-05-01 10:35 28.24226 -13.87463 2051 ft 140 kts 17°
2026-05-01 10:36 28.26013 -13.87119 2011 ft 123 kts
2026-05-01 10:36 28.26897 -13.87171 1954 ft 137 kts
2026-05-01 10:36 28.27884 -13.87008 2143 ft 161 kts
2026-05-01 10:37 28.29102 -13.86945 2090 ft 180 kts
2026-05-01 10:37 28.31579 -13.86867 1843 ft 180 kts
2026-05-01 10:37 28.32839 -13.86829 1691 ft 181 kts
2026-05-01 10:38 28.34109 -13.86777 1530 ft 184 kts
2026-05-01 10:38 28.35329 -13.86731 1805 ft 163 kts
2026-05-01 10:38 28.36357 -13.86728 1927 ft 139 kts
2026-05-01 10:38 28.37404 -13.86652 1522 ft 165 kts
2026-05-01 10:39 28.38550 -13.86573 1367 ft 163 kts
2026-05-01 10:39 28.39657 -13.86554 1104 ft 157 kts
2026-05-01 10:39 28.40741 -13.86523 804 ft 149 kts
2026-05-01 10:39 28.41779 -13.86487 499 ft 155 kts
2026-05-01 10:40 28.42844 -13.86463 301 ft 151 kts
2026-05-01 10:40 28.43850 -13.86434 144 ft 143 kts
2026-05-01 10:40 28.44831 -13.86392 70 ft 136 kts
2026-05-01 10:40 28.45394 -13.86367 76 ft 23 kts
2026-05-01 10:41 28.45463 -13.86367 74 ft 6 kts 353°
2026-05-01 10:41 28.45609 -13.86363 82 ft 29 kts 359°
2026-05-01 10:41 28.45662 -13.86495 89 ft 14 kts 272°
2026-05-01 10:42 28.45585 -13.86559 93 ft 23 kts 182°
2026-05-01 10:42 28.45430 -13.86564 92 ft 28 kts 181°
2026-05-01 10:42 28.45370 -13.86617 94 ft 11 kts 272°
2026-05-01 10:42 28.45367 -13.86727 95 ft 3 kts 211°
2026-05-01 10:43 28.45287 -13.86737 97 ft 7 kts 180°
2026-05-01 10:43 28.45272 -13.86779 95 ft 1 kts 324°
2026-05-01 10:43 28.45267 -13.86777 95 ft 1 kts 290°
2026-05-01 10:43 28.45270 -13.86807 95 ft 5 kts 272°
2026-05-01 10:44 28.45271 -13.86832 95 ft 1 kts 271°
2026-05-01 10:44 28.45271 -13.86835 96 ft 0 kts 271°